Flag for Russia Weather past 2 weeks in Gelendzhik, Russia

Now
54 °F

Sunny.


Feels Like: 51 °F
Forecast: 41 / 69 °F
Wind: 8 mph from South

Location: Anapa / Vitiazevo

Current Time: Apr 27, 2015 at 8:27:13 PM

Latest Report: Apr 27, 2015 at 8:00 PM


Visibility: 10 mi

Pressure: 30.04 "Hg

Humidity: 72%

Dew point: 45 °F

Location of GelendzhikLocation

Historic Weather in Gelendzhik — Graph

°F

Gelendzhik temperature yesterday

Maximum temperature yesterday: 68 °F (at 1:30 PM)
Minimum temperature yesterday: 32 °F (at 4:00 AM)
Average temperature yesterday: 55 °F

Past Weeks' High & Low Weather Summary

 TemperatureHumidityPressure
High72 °F (Apr 27, 12:30 PM)100% (Apr 13, 12:00 AM)30.21 "Hg (Apr 13, 12:00 AM)
Low28 °F (Apr 22, 12:00 AM)17% (Apr 26, 9:30 AM)29.68 "Hg (Apr 19, 6:30 AM)
Average50 °F70%30.00 "Hg
* Reported Apr 12 7:00 PM — Apr 27 7:00 PM, Gelendzhik, Weather by CustomWeather, © 2015

Note: Actual official high and low records may vary slightly from our data, if they occured in-between our weather recording intervals... More about our weather records

Advertising

Gelendzhik weather history for previous 24 hours

 ConditionsComfort  
Time TempWeatherWind HumidityBarometerVisibility
7:00 PM
Mon, Apr 27
55 °FSunny.3 mph77%30.01 "Hg10 mi
6:30 PM59 °FSunny.8 mph68%30.01 "Hg10 mi
6:00 PM59 °FSunny.10 mph59%30.01 "Hg10 mi
5:30 PM61 °FSunny.10 mph55%30.01 "Hg10 mi
5:00 PM63 °FSunny.8 mph56%30.01 "Hg10 mi
4:30 PM63 °FSunny.10 mph56%30.01 "Hg10 mi
4:00 PM66 °FSunny.10 mph40%30.01 "Hg10 mi
3:30 PM66 °FSunny.13 mph49%30.01 "Hg10 mi
3:00 PM66 °FSunny.13 mph49%30.01 "Hg10 mi
2:30 PM70 °FSunny.13 mph40%30.01 "Hg10 mi
2:00 PM70 °FSunny.10 mph35%30.01 "Hg10 mi
1:30 PM70 °FSunny.13 mph35%30.01 "Hg10 mi
1:00 PM70 °FPassing clouds.10 mph38%30.01 "HgN/A
12:30 PM72 °FSunny.8 mph38%30.01 "Hg10 mi
12:00 PM70 °FPassing clouds.8 mph43%30.01 "HgN/A
11:30 AM63 °FSunny.13 mph68%30.01 "Hg10 mi
11:00 AM66 °FPassing clouds.8 mph56%30.01 "HgN/A
10:30 AM66 °FPassing clouds.3 mph56%30.01 "HgN/A
10:00 AM64 °FPassing clouds.3 mph60%30.01 "HgN/A
9:30 AM63 °FSunny.8 mph64%30.01 "Hg10 mi
9:00 AM63 °FPassing clouds.3 mph59%30.01 "HgN/A
8:30 AM61 °FSunny.1 mph59%30.01 "Hg10 mi
8:00 AM57 °FSunny.8 mph63%30.01 "Hg10 mi
7:30 AM55 °FSunny.8 mph63%29.98 "Hg10 mi
7:00 AM54 °FPassing clouds.3 mph67%29.98 "HgN/A
6:30 AM52 °FPassing clouds.3 mph67%29.98 "HgN/A
6:00 AM48 °FClear.3 mph71%29.98 "Hg10 mi
5:00 AM52 °FClear.6 mph62%29.98 "Hg10 mi
4:00 AM48 °FClear.3 mph66%29.98 "Hg10 mi
3:00 AM48 °FPassing clouds.3 mph66%29.98 "HgN/A
2:00 AM48 °FClear.8 mph66%29.98 "Hg10 mi
1:00 AM45 °FClear.8 mph81%30.01 "Hg10 mi
12:00 AM45 °FClear.8 mph81%30.01 "Hg10 mi
11:00 PM
Sun, Apr 26
50 °FClear.10 mph71%30.01 "Hg10 mi
10:00 PM50 °FClear.6 mph67%30.01 "Hg10 mi
9:00 PM50 °FClear.3 mph67%30.01 "Hg10 mi
8:30 PM50 °FClear.6 mph67%30.01 "Hg10 mi
8:00 PM54 °FSunny.8 mph54%30.01 "Hg10 mi
Weather by CustomWeather, © 2015

See weather overviewHow to use our weather pages